Weather History for KBDN - November, 2012

Change the Weather History Date:

Tuesday, November 6, 2012

  Actual Average (KRDM) Record (KRDM)
Temperature  
Mean Temperature 57 °F 40 °F  
Max Temperature 73 °F 53 °F 75 °F (2012)
Min Temperature 41 °F 28 °F 8 °F (1971)
Degree Days  
Heating Degree Days 8 24  
Month to date heating degree days 141  
Since 1 July heating degree days 1086  
Cooling Degree Days 0 0  
Month to date cooling degree days 0  
Year to date cooling degree days 222  
Growing Degree Days 7 (Base 50)    
Moisture  
Dew Point 30 °F    
Average Humidity 40    
Maximum Humidity 70    
Minimum Humidity 14    
Precipitation  
Precipitation 0.00 in 0.03 in 0.15 in (1983)
Month to date precipitation 0.18  
Year to date precipitation 6.96  
Sea Level Pressure  
Sea Level Pressure 30.10 in    
Wind  
Wind Speed 9 mph (South)    
Max Wind Speed 16 mph    
Max Gust Speed 24 mph    
Visibility 10 miles    
Events      
T = Trace of Precipitation, MM = Missing Value Source: NWS Daily Summary

Daily Weather History Graph

Daily Weather History Graph

Search for Another Location

Airport or City:

Trip Planner

Search our weather history database for the weather conditions in past years. The results will help you decide how hot, cold, wet, or windy it might be!

Date:

Astronomy

Nov. 06, 2012 Rise Set
Actual Time 6:48 AM PST 4:47 PM PST
Civil Twilight 6:18 AM PST 5:17 PM PST
Nautical Twilight 5:43 AM PST 5:52 PM PST
Astronomical Twilight 5:10 AM PST 6:26 PM PST
Moon 11:35 PM PST (11/6) 12:41 PM PST (11/6)
Length of Visible Light 10h 59m
Length of Day
9h 58m
Waning Gibbous, 52% of the Moon is Illuminated
Nov 6
Waning Gibbous
Nov 6
Last Quarter
Nov 13
New
Nov 20
First Quarter
Nov 28
Full

Hourly Weather History & Observations

Time (PST) Temp. Windchill Dew Point Humidity Pressure Visibility Wind Dir Wind Speed Gust Speed Precip Events Conditions
12:35 AM 41.0 °F 36.4 °F 32.0 °F 70% 30.23 in 10.0 mi SE 6.9 mph - N/A   Clear
1:15 AM 44.6 °F 40.7 °F 32.0 °F 61% 30.22 in 10.0 mi SE 6.9 mph - N/A   Clear
1:35 AM 44.6 °F 40.7 °F 32.0 °F 61% 30.22 in 10.0 mi SE 6.9 mph - N/A   Clear
1:55 AM 44.6 °F 41.4 °F 32.0 °F 61% 30.22 in 10.0 mi SE 5.8 mph - N/A   Clear
2:15 AM 44.6 °F 39.7 °F 32.0 °F 61% 30.22 in 10.0 mi ESE 9.2 mph - N/A   Clear
2:35 AM 44.6 °F 40.2 °F 32.0 °F 61% 30.21 in 10.0 mi SE 8.1 mph - N/A   Clear
2:55 AM 44.6 °F 40.2 °F 32.0 °F 61% 30.20 in 10.0 mi ESE 8.1 mph - N/A   Clear
3:15 AM 44.6 °F 40.2 °F 32.0 °F 61% 30.19 in 10.0 mi SE 8.1 mph - N/A   Clear
3:35 AM 44.6 °F 40.2 °F 32.0 °F 61% 30.19 in 10.0 mi SE 8.1 mph - N/A   Clear
3:55 AM 46.4 °F 41.9 °F 32.0 °F 57% 30.19 in 10.0 mi SE 9.2 mph - N/A   Clear
4:15 AM 44.6 °F 40.2 °F 32.0 °F 61% 30.18 in 10.0 mi SE 8.1 mph - N/A   Clear
4:35 AM 46.4 °F 41.5 °F 32.0 °F 57% 30.18 in 10.0 mi ESE 10.4 mph - N/A   Clear
4:55 AM 44.6 °F 40.2 °F 32.0 °F 61% 30.16 in 10.0 mi ESE 8.1 mph - N/A   Clear
5:15 AM 44.6 °F 39.2 °F 32.0 °F 61% 30.17 in 10.0 mi SE 10.4 mph - N/A   Clear
5:35 AM 44.6 °F 39.7 °F 32.0 °F 61% 30.16 in 10.0 mi SE 9.2 mph - N/A   Clear
6:15 AM 42.8 °F 38.0 °F 30.2 °F 61% 30.15 in 10.0 mi SSE 8.1 mph - N/A   Clear
6:35 AM 44.6 °F 39.7 °F 32.0 °F 61% 30.15 in 10.0 mi SSE 9.2 mph - N/A   Clear
6:55 AM 46.4 °F 41.9 °F 32.0 °F 57% 30.15 in 10.0 mi South 9.2 mph - N/A   Clear
7:15 AM 53.6 °F - 32.0 °F 44% 30.15 in 10.0 mi South 12.7 mph - N/A   Clear
7:35 AM 53.6 °F - 32.0 °F 44% 30.15 in 10.0 mi South 9.2 mph - N/A   Clear
7:55 AM 50.0 °F - 32.0 °F 50% 30.15 in 10.0 mi SE 3.5 mph - N/A   Clear
8:15 AM 50.0 °F - 32.0 °F 50% 30.15 in 10.0 mi ESE 5.8 mph - N/A   Clear
8:35 AM 53.6 °F - 32.0 °F 44% 30.15 in 10.0 mi SE 3.5 mph - N/A   Clear
8:55 AM 57.2 °F - 30.2 °F 36% 30.15 in 10.0 mi SSE 9.2 mph - N/A   Clear
9:15 AM 59.0 °F - 30.2 °F 34% 30.14 in 10.0 mi SSE 9.2 mph - N/A   Clear
9:35 AM 59.0 °F - 30.2 °F 34% 30.13 in 10.0 mi SSE 6.9 mph - N/A   Clear
9:55 AM 62.6 °F - 28.4 °F 27% 30.12 in 10.0 mi SSW 10.4 mph - N/A   Clear
10:15 AM 64.4 °F - 28.4 °F 26% 30.12 in 9.0 mi South 5.8 mph - N/A   Clear
10:35 AM 64.4 °F - 28.4 °F 26% 30.11 in 10.0 mi SSE 4.6 mph - N/A   Clear
10:55 AM 66.2 °F - 26.6 °F 23% 30.10 in 10.0 mi SSW 11.5 mph - N/A   Clear
11:15 AM 68.0 °F - 26.6 °F 21% 30.09 in 10.0 mi SSW 16.1 mph 19.6 mph N/A   Clear
11:35 AM 68.0 °F - 26.6 °F 21% 30.08 in 10.0 mi SSW 15.0 mph 20.7 mph N/A   Clear
11:55 AM 68.0 °F - 26.6 °F 21% 30.07 in 10.0 mi SW 13.8 mph 24.2 mph N/A   Clear
12:15 PM 68.0 °F - 26.6 °F 21% 30.06 in 10.0 mi SW 16.1 mph - N/A   Clear
12:35 PM 69.8 °F - 26.6 °F 20% 30.05 in 10.0 mi SW 11.5 mph - N/A   Clear
12:55 PM 71.6 °F - 26.6 °F 19% 30.05 in 10.0 mi WSW 11.5 mph - N/A   Clear
1:15 PM 71.6 °F - 28.4 °F 20% 30.04 in 10.0 mi West 9.2 mph 17.3 mph N/A   Clear
1:35 PM 71.6 °F - 28.4 °F 20% 30.04 in 10.0 mi WSW 8.1 mph - N/A   Clear
2:15 PM 73.4 °F - 28.4 °F 19% 30.04 in 10.0 mi SW 11.5 mph - N/A   Clear
2:35 PM 73.4 °F - 28.4 °F 19% 30.04 in 10.0 mi SSW 11.5 mph - N/A   Clear
2:55 PM 73.4 °F - 21.2 °F 14% 30.04 in 10.0 mi West 11.5 mph 16.1 mph N/A   Clear
3:35 PM 71.6 °F - 23.0 °F 16% 30.04 in 10.0 mi WSW 12.7 mph 16.1 mph N/A   Clear
3:55 PM 69.8 °F - 24.8 °F 18% 30.04 in 10.0 mi WSW 11.5 mph - N/A   Clear
4:15 PM 68.0 °F - 24.8 °F 20% 30.04 in 10.0 mi WSW 6.9 mph - N/A   Clear
4:35 PM 66.2 °F - 24.8 °F 21% 30.04 in 10.0 mi SW 8.1 mph - N/A   Clear
4:55 PM 64.4 °F - 26.6 °F 24% 30.04 in 10.0 mi WSW 5.8 mph - N/A   Clear
5:15 PM 62.6 °F - 26.6 °F 26% 30.04 in 10.0 mi WSW 5.8 mph - N/A   Clear
5:35 PM 62.6 °F - 28.4 °F 27% 30.04 in 10.0 mi SW 6.9 mph - N/A   Clear
5:55 PM 60.8 °F - 32.0 °F 34% 30.04 in 10.0 mi SW 10.4 mph - N/A   Clear
6:15 PM 59.0 °F - 32.0 °F 36% 30.03 in 10.0 mi SW 11.5 mph - N/A   Clear
6:35 PM 60.8 °F - 30.2 °F 31% 30.03 in 10.0 mi SSW 15.0 mph - N/A   Clear
6:55 PM 59.0 °F - 30.2 °F 34% 30.03 in 10.0 mi SSW 13.8 mph - N/A   Clear
7:15 PM 59.0 °F - 32.0 °F 36% 30.03 in 10.0 mi SSW 12.7 mph - N/A   Clear
7:35 PM 57.2 °F - 32.0 °F 38% 30.04 in 10.0 mi SW 8.1 mph - N/A   Clear
7:55 PM 55.4 °F - 32.0 °F 41% 30.03 in 10.0 mi South 5.8 mph - N/A   Clear
8:15 PM 57.2 °F - 32.0 °F 38% 30.03 in 10.0 mi SSW 10.4 mph - N/A   Clear
8:35 PM 57.2 °F - 32.0 °F 38% 30.03 in 10.0 mi SSW 13.8 mph - N/A   Partly Cloudy
8:55 PM 57.2 °F - 32.0 °F 38% 30.04 in 10.0 mi South 12.7 mph - N/A   Partly Cloudy
9:15 PM 55.4 °F - 32.0 °F 41% 30.04 in 10.0 mi SSW 13.8 mph - N/A   Clear
9:35 PM 55.4 °F - 32.0 °F 41% 30.04 in 10.0 mi SSW 12.7 mph - N/A   Clear
9:55 PM 55.4 °F - 32.0 °F 41% 30.04 in 10.0 mi SSW 15.0 mph - N/A   Clear
10:15 PM 53.6 °F - 32.0 °F 44% 30.04 in 10.0 mi SSW 13.8 mph - N/A   Clear
10:35 PM 55.4 °F - 33.8 °F 44% 30.04 in 10.0 mi SSW 13.8 mph - N/A   Clear
10:55 PM 53.6 °F - 35.6 °F 51% 30.04 in 10.0 mi SSW 11.5 mph - N/A   Clear
11:15 PM 53.6 °F - 35.6 °F 51% 30.03 in 10.0 mi SSW 12.7 mph - N/A   Clear
11:35 PM 53.6 °F - 35.6 °F 51% 30.03 in 10.0 mi SSW 10.4 mph - N/A   Clear
11:55 PM 53.6 °F - 35.6 °F 51% 30.03 in 10.0 mi SSW 8.1 mph - N/A   Partly Cloudy